Time,TemperatureF,DewpointF,PressureIn,WindDirection,WindDirectionDegrees,WindSpeedMPH,WindSpeedGustMPH,Humidity,HourlyPrecipIn,Conditions,Clouds,dailyrainin,SolarRadiationWatts/m^2,SoftwareType,DateUTC
2013-03-23 00:00:00,29.3,26.7,29.86,WSW,242,7.0,7.0,90,0.03,-SN,,0.14,0.0,WeatherDisplay:10.37,2013-03-23 04:00:00,
2013-03-23 00:05:00,29.3,27.0,29.86,SW,236,10.4,10.4,91,0.04,-SN,,0.01,0.0,WeatherDisplay:10.37,2013-03-23 04:05:00,
2013-03-23 00:10:00,29.3,27.0,29.86,West,271,10.4,10.4,91,0.03,-SN,,0.01,0.0,WeatherDisplay:10.37,2013-03-23 04:10:00,
2013-03-23 00:15:00,29.3,27.0,29.86,WSW,244,8.1,8.1,91,0.03,-SN,,0.01,0.0,WeatherDisplay:10.37,2013-03-23 04:15:00,
2013-03-23 00:20:00,29.1,26.8,29.86,SSW,212,10.4,10.4,91,0.03,-SN,,0.01,0.0,WeatherDisplay:10.37,2013-03-23 04:20:00,
2013-03-23 00:25:00,29.3,27.0,29.86,WSW,252,4.0,4.0,91,0.03,-SN,,0.01,0.0,WeatherDisplay:10.37,2013-03-23 04:25:00,
2013-03-23 00:30:00,29.3,27.0,29.86,WSW,249,5.0,5.0,91,0.03,-SN,,0.01,0.0,WeatherDisplay:10.37,2013-03-23 04:30:00,
2013-03-23 00:35:00,29.3,27.0,29.86,SW,236,7.0,7.0,91,0.02,-SN,,0.01,0.0,WeatherDisplay:10.37,2013-03-23 04:35:00,
2013-03-23 00:40:00,29.3,27.0,29.85,West,261,11.0,11.0,91,0.03,-SN,,0.02,0.0,WeatherDisplay:10.37,2013-03-23 04:40:00,
2013-03-23 00:45:00,29.3,27.0,29.85,SW,233,11.5,11.5,91,0.03,-SN,,0.02,0.0,WeatherDisplay:10.37,2013-03-23 04:45:00,
2013-03-23 00:50:00,29.3,27.0,29.85,SW,225,6.0,6.0,91,0.02,-SN,,0.02,0.0,WeatherDisplay:10.37,2013-03-23 04:50:00,
2013-03-23 00:55:00,29.3,27.0,29.85,SW,236,9.0,9.0,91,0.02,-SN,,0.02,0.0,WeatherDisplay:10.37,2013-03-23 04:55:00,
2013-03-23 01:00:00,29.3,27.0,29.85,SW,226,6.0,6.0,91,0.02,-SN,,0.02,0.0,WeatherDisplay:10.37,2013-03-23 05:00:00,
2013-03-23 01:05:00,29.3,27.0,29.85,WNW,293,9.2,9.2,91,0.01,-SN,,0.02,0.0,WeatherDisplay:10.37,2013-03-23 05:05:00,
2013-03-23 01:10:00,29.1,26.8,29.85,WSW,244,11.5,11.5,91,0.01,-SN,,0.02,0.0,WeatherDisplay:10.37,2013-03-23 05:10:00,
2013-03-23 01:15:00,29.3,27.0,29.85,WSW,246,2.0,2.0,91,0.02,-SN,,0.03,0.0,WeatherDisplay:10.37,2013-03-23 05:15:00,
2013-03-23 01:20:00,29.3,27.0,29.85,West,279,9.2,9.2,91,0.02,-SN,,0.03,0.0,WeatherDisplay:10.37,2013-03-23 05:20:00,
2013-03-23 01:25:00,29.3,27.0,29.85,WSW,253,7.0,7.0,91,0.02,-SN,,0.03,0.0,WeatherDisplay:10.37,2013-03-23 05:25:00,
2013-03-23 01:30:00,29.3,27.0,29.85,West,261,6.0,6.0,91,0.02,-SN,,0.03,0.0,WeatherDisplay:10.37,2013-03-23 05:30:00,
2013-03-23 01:35:00,29.3,27.0,29.85,West,278,6.9,6.9,91,0.02,-SN,,0.03,0.0,WeatherDisplay:10.37,2013-03-23 05:35:00,
2013-03-23 01:40:00,29.1,26.8,29.85,WSW,258,5.0,5.0,91,0.01,-SN,,0.03,0.0,WeatherDisplay:10.37,2013-03-23 05:40:00,
2013-03-23 01:45:00,29.1,26.8,29.85,WNW,284,4.6,4.6,91,0.01,-SN,,0.03,0.0,WeatherDisplay:10.37,2013-03-23 05:45:00,
2013-03-23 01:50:00,29.3,27.0,29.85,NW,305,5.8,5.8,91,0.01,-SN,,0.03,0.0,WeatherDisplay:10.37,2013-03-23 05:50:00,
2013-03-23 01:55:00,29.3,27.0,29.86,WNW,298,8.1,8.1,91,0.01,-SN,,0.03,0.0,WeatherDisplay:10.37,2013-03-23 05:55:00,
2013-03-23 02:00:00,29.3,27.0,29.86,WNW,290,9.0,9.0,91,0.01,-SN,,0.03,0.0,WeatherDisplay:10.37,2013-03-23 06:00:00,
2013-03-23 02:05:00,29.3,27.0,29.86,WNW,300,11.0,11.0,91,0.01,-SN,,0.03,0.0,WeatherDisplay:10.37,2013-03-23 06:05:00,
2013-03-23 02:10:00,29.3,27.0,29.86,WSW,255,10.0,10.0,91,0.01,-SN,,0.03,0.0,WeatherDisplay:10.37,2013-03-23 06:10:00,
2013-03-23 02:15:00,29.3,27.0,29.86,WSW,251,9.2,9.2,91,0.01,-SN,,0.03,0.0,WeatherDisplay:10.37,2013-03-23 06:15:00,
2013-03-23 02:20:00,29.3,27.0,29.86,West,262,10.4,10.4,91,0.00,-SN,,0.03,0.0,WeatherDisplay:10.37,2013-03-23 06:20:00,
2013-03-23 02:25:00,29.1,26.8,29.85,WSW,255,10.4,10.4,91,0.00,-SN,,0.03,0.0,WeatherDisplay:10.37,2013-03-23 06:25:00,
2013-03-23 02:30:00,29.1,26.8,29.85,WNW,293,5.8,5.8,91,0.00,-SN,,0.03,0.0,WeatherDisplay:10.37,2013-03-23 06:30:00,
2013-03-23 02:36:00,29.1,26.8,29.85,West,268,10.0,10.0,91,0.00,-SN,,0.03,0.0,WeatherDisplay:10.37,2013-03-23 06:36:00,
2013-03-23 02:41:00,29.1,26.8,29.85,West,271,7.0,7.0,91,0.00,-SN,,0.03,0.0,WeatherDisplay:10.37,2013-03-23 06:41:00,
2013-03-23 02:47:00,29.1,26.8,29.85,West,267,12.0,12.0,91,0.00,-SN,,0.03,0.0,WeatherDisplay:10.37,2013-03-23 06:47:00,
2013-03-23 02:52:00,29.1,26.8,29.85,West,265,11.0,11.0,91,0.00,-SN,,0.03,0.0,WeatherDisplay:10.37,2013-03-23 06:52:00,
2013-03-23 02:57:00,29.0,26.7,29.85,West,262,7.0,7.0,91,0.00,-SN,,0.03,0.0,WeatherDisplay:10.37,2013-03-23 06:57:00,
2013-03-23 03:02:00,29.0,26.7,29.85,WSW,243,13.0,13.0,91,0.00,OVC,,0.03,0.0,WeatherDisplay:10.37,2013-03-23 07:02:00,
2013-03-23 03:07:00,29.0,26.7,29.85,SSW,195,11.0,11.0,91,0.00,OVC,,0.03,0.0,WeatherDisplay:10.37,2013-03-23 07:07:00,
2013-03-23 03:12:00,29.0,26.7,29.84,SSW,210,10.4,10.4,91,0.01,-SN,,0.04,0.0,WeatherDisplay:10.37,2013-03-23 07:12:00,
2013-03-23 03:17:00,28.8,26.5,29.84,SW,219,10.4,10.4,91,0.01,-SN,,0.04,0.0,WeatherDisplay:10.37,2013-03-23 07:17:00,
2013-03-23 03:22:00,28.8,26.5,29.84,West,270,11.5,11.5,91,0.01,-SN,,0.04,0.0,WeatherDisplay:10.37,2013-03-23 07:22:00,
2013-03-23 03:27:00,28.8,26.5,29.84,West,260,10.0,10.0,91,0.01,-SN,,0.04,0.0,WeatherDisplay:10.37,2013-03-23 07:27:00,
2013-03-23 03:32:00,28.7,26.4,29.84,WSW,253,13.0,13.0,91,0.01,-SN,,0.04,0.0,WeatherDisplay:10.37,2013-03-23 07:32:00,
2013-03-23 03:37:00,28.7,26.4,29.84,WSW,250,7.0,7.0,91,0.01,-SN,,0.04,0.0,WeatherDisplay:10.37,2013-03-23 07:37:00,
2013-03-23 03:42:00,28.7,26.4,29.84,West,263,12.0,12.0,91,0.01,-SN,,0.04,0.0,WeatherDisplay:10.37,2013-03-23 07:42:00,
2013-03-23 03:47:00,28.7,26.4,29.84,SW,223,14.0,14.0,91,0.01,-SN,,0.04,0.0,WeatherDisplay:10.37,2013-03-23 07:47:00,
2013-03-23 03:52:00,28.8,26.5,29.84,SW,234,6.0,6.0,91,0.01,-SN,,0.04,0.0,WeatherDisplay:10.37,2013-03-23 07:52:00,
2013-03-23 03:57:00,28.8,26.5,29.83,SW,220,10.4,10.4,91,0.01,-SN,,0.04,0.0,WeatherDisplay:10.37,2013-03-23 07:57:00,
2013-03-23 04:02:00,28.8,26.5,29.83,WSW,239,11.5,11.5,91,0.01,-SN,,0.04,0.0,WeatherDisplay:10.37,2013-03-23 08:02:00,
2013-03-23 04:07:00,28.8,26.5,29.83,WSW,249,3.5,3.5,91,0.01,-SN,,0.04,0.0,WeatherDisplay:10.37,2013-03-23 08:07:00,
2013-03-23 04:12:00,28.8,26.5,29.83,WSW,253,10.4,10.4,91,0.00,-SN,,0.04,0.0,WeatherDisplay:10.37,2013-03-23 08:12:00,
2013-03-23 04:17:00,29.0,26.7,29.83,West,267,6.0,6.0,91,0.00,-SN,,0.04,0.0,WeatherDisplay:10.37,2013-03-23 08:17:00,
2013-03-23 04:23:00,29.0,26.7,29.83,WNW,293,14.0,14.0,91,0.00,-SN,,0.04,0.0,WeatherDisplay:10.37,2013-03-23 08:23:00,
2013-03-23 04:27:00,29.0,26.7,29.83,WNW,282,8.0,8.0,91,0.00,-SN,,0.04,0.0,WeatherDisplay:10.37,2013-03-23 08:27:00,
2013-03-23 04:32:00,29.0,26.7,29.83,West,260,11.0,11.0,91,0.00,-SN,,0.04,0.0,WeatherDisplay:10.37,2013-03-23 08:32:00,
2013-03-23 04:37:00,29.0,26.7,29.83,WNW,288,15.0,15.0,91,0.00,-SN,,0.04,0.0,WeatherDisplay:10.37,2013-03-23 08:37:00,
2013-03-23 04:42:00,29.0,26.7,29.84,NW,324,11.5,11.5,91,0.00,-SN,,0.04,0.0,WeatherDisplay:10.37,2013-03-23 08:42:00,
2013-03-23 04:47:00,29.0,26.7,29.84,WNW,292,7.0,7.0,91,0.00,-SN,,0.04,0.0,WeatherDisplay:10.37,2013-03-23 08:47:00,
2013-03-23 04:52:00,29.0,26.7,29.84,NNW,328,6.0,6.0,91,0.00,-SN,,0.04,0.0,WeatherDisplay:10.37,2013-03-23 08:52:00,
2013-03-23 04:58:00,29.0,26.7,29.85,WNW,282,12.0,12.0,91,0.00,-SN,,0.04,0.0,WeatherDisplay:10.37,2013-03-23 08:58:00,
2013-03-23 05:03:00,29.0,26.7,29.85,WNW,302,9.2,9.2,91,0.01,-SN,,0.05,0.0,WeatherDisplay:10.37,2013-03-23 09:03:00,
2013-03-23 05:07:00,29.0,26.7,29.85,West,265,7.0,7.0,91,0.01,-SN,,0.05,0.0,WeatherDisplay:10.37,2013-03-23 09:07:00,
2013-03-23 05:12:00,29.0,26.7,29.84,SW,217,6.0,6.0,91,0.01,-SN,,0.05,0.0,WeatherDisplay:10.37,2013-03-23 09:12:00,
2013-03-23 05:18:00,28.8,26.5,29.84,NW,305,6.9,6.9,91,0.01,-SN,,0.05,0.0,WeatherDisplay:10.37,2013-03-23 09:18:00,
2013-03-23 05:23:00,28.8,26.5,29.84,West,268,5.8,5.8,91,0.01,-SN,,0.05,0.0,WeatherDisplay:10.37,2013-03-23 09:23:00,
2013-03-23 05:28:00,28.8,26.5,29.84,West,271,6.9,6.9,91,0.01,-SN,,0.05,0.0,WeatherDisplay:10.37,2013-03-23 09:28:00,
2013-03-23 05:33:00,28.8,26.5,29.84,WSW,246,5.0,5.0,91,0.01,-SN,,0.05,0.0,WeatherDisplay:10.37,2013-03-23 09:33:00,
2013-03-23 05:38:00,28.8,26.5,29.84,WSW,248,3.5,3.5,91,0.01,-SN,,0.05,0.0,WeatherDisplay:10.37,2013-03-23 09:38:00,
2013-03-23 05:43:00,28.8,26.5,29.85,West,260,5.0,5.0,91,0.01,-SN,,0.05,0.0,WeatherDisplay:10.37,2013-03-23 09:43:00,
2013-03-23 05:48:00,29.0,25.6,29.85,WNW,296,4.6,4.6,87,0.01,-SN,,0.05,0.0,WeatherDisplay:10.37,2013-03-23 09:48:00,
2013-03-23 05:53:00,29.0,26.7,29.85,WNW,285,6.0,6.0,91,0.01,-SN,,0.05,0.0,WeatherDisplay:10.37,2013-03-23 09:53:00,
2013-03-23 05:58:00,29.1,26.8,29.85,West,262,5.0,5.0,91,0.02,-SN,,0.06,0.0,WeatherDisplay:10.37,2013-03-23 09:58:00,
2013-03-23 06:03:00,29.1,26.8,29.85,WNW,294,10.4,10.4,91,0.01,-SN,,0.06,0.0,WeatherDisplay:10.37,2013-03-23 10:03:00,
2013-03-23 06:08:00,29.1,26.8,29.85,West,262,5.0,5.0,91,0.01,-SN,,0.06,0.0,WeatherDisplay:10.37,2013-03-23 10:08:00,
2013-03-23 06:13:00,29.1,26.8,29.85,WNW,296,5.8,5.8,91,0.01,BKN,,0.06,0.0,WeatherDisplay:10.37,2013-03-23 10:13:00,
2013-03-23 06:18:00,29.0,26.7,29.85,WSW,253,7.0,7.0,91,0.01,BKN,,0.06,0.0,WeatherDisplay:10.37,2013-03-23 10:18:00,
2013-03-23 06:23:00,29.0,26.7,29.85,West,279,6.0,6.0,91,0.01,BKN,,0.06,0.0,WeatherDisplay:10.37,2013-03-23 10:23:00,
2013-03-23 06:28:00,29.0,26.7,29.86,West,264,7.0,7.0,91,0.01,BKN,,0.06,0.0,WeatherDisplay:10.37,2013-03-23 10:28:00,
2013-03-23 06:33:00,28.8,26.5,29.86,WSW,252,7.0,7.0,91,0.01,OVC,,0.06,0.0,WeatherDisplay:10.37,2013-03-23 10:33:00,
2013-03-23 06:38:00,28.8,26.5,29.86,West,270,7.0,7.0,91,0.01,OVC,,0.06,0.0,WeatherDisplay:10.37,2013-03-23 10:38:00,
2013-03-23 06:43:00,28.7,26.4,29.86,NW,317,5.8,5.8,91,0.01,OVC,,0.06,0.0,WeatherDisplay:10.37,2013-03-23 10:43:00,
2013-03-23 06:48:00,28.7,26.4,29.86,WSW,252,6.0,6.0,91,0.01,OVC,,0.06,0.0,WeatherDisplay:10.37,2013-03-23 10:48:00,
2013-03-23 06:53:00,28.7,26.4,29.86,WNW,289,10.4,10.4,91,0.01,OVC,,0.06,0.0,WeatherDisplay:10.37,2013-03-23 10:53:00,
2013-03-23 06:58:00,28.5,26.2,29.86,WNW,287,5.0,5.0,91,0.00,OVC,,0.06,0.0,WeatherDisplay:10.37,2013-03-23 10:58:00,
2013-03-23 07:03:00,28.5,26.2,29.86,West,261,10.4,10.4,91,0.00,OVC,,0.06,0.0,WeatherDisplay:10.37,2013-03-23 11:03:00,
2013-03-23 07:08:00,28.5,26.2,29.86,SW,217,5.0,5.0,91,0.00,OVC,,0.06,0.0,WeatherDisplay:10.37,2013-03-23 11:08:00,
2013-03-23 07:13:00,28.5,25.9,29.87,WSW,250,6.9,6.9,90,0.00,OVC,,0.06,0.0,WeatherDisplay:10.37,2013-03-23 11:13:00,
2013-03-23 07:18:00,28.5,25.9,29.87,West,266,11.5,11.5,90,0.00,OVC,,0.06,0.0,WeatherDisplay:10.37,2013-03-23 11:18:00,
2013-03-23 07:23:00,28.5,25.9,29.87,WNW,302,10.4,10.4,90,0.00,OVC,,0.06,0.0,WeatherDisplay:10.37,2013-03-23 11:23:00,
2013-03-23 07:28:00,28.5,25.9,29.87,WNW,296,6.0,6.0,90,0.00,OVC,,0.06,12.0,WeatherDisplay:10.37,2013-03-23 11:28:00,
2013-03-23 07:33:00,28.5,25.9,29.87,WNW,284,10.4,10.4,90,0.00,OVC,,0.06,18.0,WeatherDisplay:10.37,2013-03-23 11:33:00,
2013-03-23 07:38:00,28.5,25.7,29.87,West,274,13.0,13.0,89,0.00,OVC,,0.06,30.0,WeatherDisplay:10.37,2013-03-23 11:38:00,
2013-03-23 07:43:00,28.4,25.3,29.88,WNW,303,13.0,13.0,88,0.00,OVC,,0.06,49.0,WeatherDisplay:10.37,2013-03-23 11:43:00,
2013-03-23 07:48:00,28.4,25.3,29.88,WNW,283,13.0,13.0,88,0.00,OVC,,0.06,53.0,WeatherDisplay:10.37,2013-03-23 11:48:00,
2013-03-23 07:53:00,28.4,25.0,29.88,NW,306,10.4,10.4,87,0.00,OVC,,0.06,65.0,WeatherDisplay:10.37,2013-03-23 11:53:00,
2013-03-23 07:58:00,28.4,24.7,29.88,WSW,255,8.0,8.0,86,0.00,OVC,,0.06,70.0,WeatherDisplay:10.37,2013-03-23 11:58:00,
2013-03-23 08:03:00,28.4,24.5,29.88,NW,311,5.0,5.0,85,0.00,BKN,,0.06,74.0,WeatherDisplay:10.37,2013-03-23 12:03:00,
2013-03-23 08:08:00,28.5,24.3,29.88,WNW,299,6.0,6.0,84,0.00,BKN,,0.06,79.0,WeatherDisplay:10.37,2013-03-23 12:08:00,
2013-03-23 08:13:00,28.7,24.2,29.88,WNW,285,11.0,11.0,83,0.00,BKN,,0.06,79.0,WeatherDisplay:10.37,2013-03-23 12:13:00,
2013-03-23 08:19:00,28.8,24.3,29.88,WNW,291,10.4,10.4,83,0.00,BKN,,0.06,95.0,WeatherDisplay:10.37,2013-03-23 12:19:00,
2013-03-23 08:24:00,29.0,24.2,29.88,WNW,303,14.0,14.0,82,0.00,BKN,,0.06,116.0,WeatherDisplay:10.37,2013-03-23 12:24:00,
2013-03-23 08:29:00,29.3,24.5,29.88,NW,311,7.0,7.0,82,0.00,BKN,,0.06,185.0,WeatherDisplay:10.37,2013-03-23 12:29:00,
2013-03-23 08:34:00,29.8,24.7,29.88,SW,231,13.8,13.8,81,0.00,BKN,,0.06,51.0,WeatherDisplay:10.37,2013-03-23 12:34:00,
2013-03-23 08:39:00,30.0,24.9,29.88,NW,307,11.5,11.5,81,0.00,BKN,,0.06,253.0,WeatherDisplay:10.37,2013-03-23 12:39:00,
2013-03-23 08:44:00,31.0,25.6,29.88,WNW,296,9.2,9.2,80,0.00,BKN,,0.06,272.0,WeatherDisplay:10.37,2013-03-23 12:44:00,
2013-03-23 08:49:00,31.8,25.4,29.88,West,270,11.5,11.5,77,0.00,BKN,,0.06,290.0,WeatherDisplay:10.37,2013-03-23 12:49:00,
2013-03-23 08:54:00,32.2,25.5,29.88,West,280,8.1,8.1,76,0.00,BKN,,0.06,353.0,WeatherDisplay:10.37,2013-03-23 12:54:00,
2013-03-23 08:59:00,32.7,25.3,29.88,NW,320,9.2,9.2,74,0.00,BKN,,0.06,364.0,WeatherDisplay:10.37,2013-03-23 12:59:00,
2013-03-23 09:04:00,32.8,25.1,29.88,WNW,296,13.8,13.8,73,0.00,OVC,,0.06,425.0,WeatherDisplay:10.37,2013-03-23 13:04:00,
2013-03-23 09:09:00,32.9,25.2,29.88,WNW,301,10.4,10.4,73,0.00,OVC,,0.06,207.0,WeatherDisplay:10.37,2013-03-23 13:09:00,
2013-03-23 09:14:00,32.9,25.2,29.88,West,277,11.5,11.5,73,0.00,OVC,,0.06,397.0,WeatherDisplay:10.37,2013-03-23 13:14:00,
2013-03-23 09:19:00,33.5,25.8,29.88,West,281,10.4,10.4,73,0.00,OVC,,0.06,258.0,WeatherDisplay:10.37,2013-03-23 13:19:00,
2013-03-23 09:24:00,33.7,25.3,29.88,WNW,291,13.0,13.0,71,0.00,OVC,,0.06,336.0,WeatherDisplay:10.37,2013-03-23 13:24:00,
2013-03-23 09:29:00,33.4,25.0,29.88,NW,313,12.0,12.0,71,0.00,OVC,,0.06,207.0,WeatherDisplay:10.37,2013-03-23 13:29:00,
2013-03-23 09:34:00,32.8,24.1,29.88,NW,319,17.3,17.3,70,0.00,OVC,,0.06,295.0,WeatherDisplay:10.37,2013-03-23 13:34:00,
2013-03-23 09:39:00,32.4,23.7,29.88,West,278,13.0,13.0,70,0.00,OVC,,0.06,323.0,WeatherDisplay:10.37,2013-03-23 13:39:00,
2013-03-23 09:44:00,32.5,24.1,29.88,NW,316,11.0,11.0,71,0.00,OVC,,0.06,250.0,WeatherDisplay:10.37,2013-03-23 13:44:00,
2013-03-23 09:49:00,32.4,24.0,29.88,West,278,15.0,15.0,71,0.00,OVC,,0.06,223.0,WeatherDisplay:10.37,2013-03-23 13:49:00,
2013-03-23 09:54:00,32.2,23.8,29.88,WNW,298,21.0,21.0,71,0.00,OVC,,0.06,258.0,WeatherDisplay:10.37,2013-03-23 13:54:00,
2013-03-23 09:59:00,32.1,23.8,29.89,WNW,282,13.0,13.0,71,0.00,OVC,,0.06,265.0,WeatherDisplay:10.37,2013-03-23 13:59:00,
2013-03-23 10:04:00,32.2,23.8,29.89,NW,316,13.0,13.0,71,0.00,BKN,,0.06,281.0,WeatherDisplay:10.37,2013-03-23 14:04:00,
2013-03-23 10:09:00,32.5,24.1,29.89,West,272,15.0,15.0,71,0.00,BKN,,0.06,302.0,WeatherDisplay:10.37,2013-03-23 14:09:00,
2013-03-23 10:14:00,32.9,24.2,29.88,NW,315,13.0,13.0,70,0.00,BKN,,0.06,229.0,WeatherDisplay:10.37,2013-03-23 14:14:00,
2013-03-23 10:19:00,33.7,24.3,29.88,NW,307,15.0,15.0,68,0.00,BKN,,0.06,229.0,WeatherDisplay:10.37,2013-03-23 14:19:00,
2013-03-23 10:24:00,34.7,24.9,29.88,West,259,13.0,13.0,67,0.00,BKN,,0.06,759.0,WeatherDisplay:10.37,2013-03-23 14:24:00,
2013-03-23 10:29:00,34.9,23.9,29.88,WNW,295,17.3,17.3,64,0.00,BKN,,0.06,373.0,WeatherDisplay:10.37,2013-03-23 14:29:00,
2013-03-23 10:34:00,34.7,24.1,29.88,WNW,289,10.4,10.4,65,0.00,BKN,,0.06,450.0,WeatherDisplay:10.37,2013-03-23 14:34:00,
2013-03-23 10:39:00,34.6,23.7,29.88,WNW,295,23.0,23.0,64,0.00,BKN,,0.06,329.0,WeatherDisplay:10.37,2013-03-23 14:39:00,
2013-03-23 10:44:00,34.4,23.8,29.88,WNW,294,10.4,10.4,65,0.00,BKN,,0.06,272.0,WeatherDisplay:10.37,2013-03-23 14:44:00,
2013-03-23 10:49:00,34.3,24.1,29.88,WSW,248,16.0,16.0,66,0.00,BKN,,0.06,260.0,WeatherDisplay:10.37,2013-03-23 14:49:00,
2013-03-23 10:54:00,34.0,24.2,29.88,WNW,300,11.0,11.0,67,0.00,BKN,,0.06,287.0,WeatherDisplay:10.37,2013-03-23 14:54:00,
2013-03-23 10:59:00,33.8,24.4,29.89,West,262,13.0,13.0,68,0.00,BKN,,0.06,285.0,WeatherDisplay:10.37,2013-03-23 14:59:00,
2013-03-23 11:04:00,33.7,24.3,29.89,WNW,284,16.1,16.1,68,0.00,OVC,,0.06,526.0,WeatherDisplay:10.37,2013-03-23 15:04:00,
2013-03-23 11:09:00,34.1,24.6,29.89,NW,307,18.4,18.4,68,0.00,OVC,,0.06,369.0,WeatherDisplay:10.37,2013-03-23 15:09:00,
2013-03-23 11:14:00,34.1,24.3,29.89,NW,318,16.1,16.1,67,0.00,OVC,,0.06,403.0,WeatherDisplay:10.37,2013-03-23 15:14:00,
2013-03-23 11:19:00,33.8,23.6,29.89,WNW,282,18.0,18.0,66,0.00,OVC,,0.06,346.0,WeatherDisplay:10.37,2013-03-23 15:19:00,
2013-03-23 11:24:00,33.7,23.5,29.89,WNW,287,17.3,17.3,66,0.00,OVC,,0.06,287.0,WeatherDisplay:10.37,2013-03-23 15:24:00,
2013-03-23 11:29:00,33.5,23.7,29.89,WSW,248,17.3,17.3,67,0.00,OVC,,0.06,288.0,WeatherDisplay:10.37,2013-03-23 15:29:00,
2013-03-23 11:34:00,33.4,23.3,29.89,WNW,303,15.0,15.0,66,0.00,OVC,,0.06,234.0,WeatherDisplay:10.37,2013-03-23 15:34:00,
2013-03-23 11:39:00,33.2,23.4,29.89,West,263,24.0,24.0,67,0.00,OVC,,0.06,325.0,WeatherDisplay:10.37,2013-03-23 15:39:00,
2013-03-23 11:44:00,33.2,23.4,29.89,WNW,287,16.1,16.1,67,0.00,OVC,,0.06,452.0,WeatherDisplay:10.37,2013-03-23 15:44:00,
2013-03-23 11:49:00,33.8,24.4,29.89,NW,305,12.7,12.7,68,0.00,OVC,,0.06,1016.0,WeatherDisplay:10.37,2013-03-23 15:49:00,
2013-03-23 11:54:00,35.3,24.7,29.89,West,260,18.4,18.4,65,0.00,OVC,,0.06,610.0,WeatherDisplay:10.37,2013-03-23 15:54:00,
2013-03-23 11:59:00,35.5,23.8,29.89,NW,305,19.0,19.0,62,0.00,OVC,,0.06,519.0,WeatherDisplay:10.37,2013-03-23 15:59:00,
2013-03-23 12:04:00,35.3,24.0,29.89,WNW,289,18.0,18.0,63,0.00,OVC,,0.06,385.0,WeatherDisplay:10.37,2013-03-23 16:04:00,
2013-03-23 12:09:00,35.2,23.5,29.89,SSW,205,19.6,19.6,62,0.00,OVC,,0.06,443.0,WeatherDisplay:10.37,2013-03-23 16:09:00,
2013-03-23 12:14:00,35.0,23.7,29.89,NNW,329,19.6,19.6,63,0.00,OVC,,0.06,1211.0,WeatherDisplay:10.37,2013-03-23 16:14:00,
2013-03-23 12:19:00,35.5,23.8,29.89,WNW,296,24.2,24.2,62,0.00,OVC,,0.06,738.0,WeatherDisplay:10.37,2013-03-23 16:19:00,
2013-03-23 12:24:00,35.6,23.9,29.89,NNW,335,19.6,19.6,62,0.00,OVC,,0.06,738.0,WeatherDisplay:10.37,2013-03-23 16:24:00,
2013-03-23 12:29:00,36.8,25.0,29.89,NW,311,13.8,13.8,62,0.00,OVC,,0.06,575.0,WeatherDisplay:10.37,2013-03-23 16:29:00,
2013-03-23 12:34:00,37.9,24.8,29.89,WSW,251,20.0,20.0,59,0.00,OVC,,0.06,826.0,WeatherDisplay:10.37,2013-03-23 16:34:00,
2013-03-23 12:39:00,37.9,24.8,29.89,WNW,295,15.0,15.0,59,0.00,OVC,,0.06,475.0,WeatherDisplay:10.37,2013-03-23 16:39:00,
2013-03-23 12:44:00,37.6,24.1,29.89,NW,306,16.1,16.1,58,0.00,OVC,,0.06,287.0,WeatherDisplay:10.37,2013-03-23 16:44:00,
2013-03-23 12:49:00,36.5,23.9,29.89,NW,325,18.4,18.4,60,0.00,OVC,,0.06,422.0,WeatherDisplay:10.37,2013-03-23 16:49:00,
2013-03-23 12:54:00,36.2,24.0,29.89,WNW,289,15.0,15.0,61,0.00,OVC,,0.06,629.0,WeatherDisplay:10.37,2013-03-23 16:54:00,
2013-03-23 12:59:00,35.9,23.0,29.90,NW,314,19.6,19.6,59,0.00,OVC,,0.06,316.0,WeatherDisplay:10.37,2013-03-23 16:59:00,
2013-03-23 13:04:00,35.5,23.4,29.90,WSW,253,15.0,15.0,61,0.00,-SN,,0.06,246.0,WeatherDisplay:10.37,2013-03-23 17:04:00,
2013-03-23 13:09:00,35.0,23.7,29.90,NW,305,16.1,16.1,63,0.00,-SN,,0.06,369.0,WeatherDisplay:10.37,2013-03-23 17:09:00,
2013-03-23 13:14:00,35.0,24.4,29.90,WSW,257,14.0,14.0,65,0.00,-SN,,0.06,341.0,WeatherDisplay:10.37,2013-03-23 17:14:00,
2013-03-23 13:19:00,35.3,24.7,29.90,West,265,18.0,18.0,65,0.00,-SN,,0.06,445.0,WeatherDisplay:10.37,2013-03-23 17:19:00,
2013-03-23 13:24:00,35.6,25.0,29.90,West,260,15.0,15.0,65,0.00,-SN,,0.06,475.0,WeatherDisplay:10.37,2013-03-23 17:24:00,
2013-03-23 13:29:00,36.0,24.6,29.90,WSW,252,15.0,15.0,63,0.00,-SN,,0.06,362.0,WeatherDisplay:10.37,2013-03-23 17:29:00,
2013-03-23 13:35:00,35.8,24.4,29.90,NW,309,16.1,16.1,63,0.00,-SN,,0.06,295.0,WeatherDisplay:10.37,2013-03-23 17:35:00,
2013-03-23 13:40:00,35.6,23.9,29.90,West,269,16.1,16.1,62,0.00,-SN,,0.06,306.0,WeatherDisplay:10.37,2013-03-23 17:40:00,
2013-03-23 13:45:00,35.3,24.0,29.89,SW,231,11.5,11.5,63,0.00,-SN,,0.06,237.0,WeatherDisplay:10.37,2013-03-23 17:45:00,
2013-03-23 13:50:00,35.0,24.0,29.89,SSW,213,17.3,17.3,64,0.00,-SN,,0.06,436.0,WeatherDisplay:10.37,2013-03-23 17:50:00,
2013-03-23 13:55:00,35.5,24.5,29.89,NW,315,16.0,16.0,64,0.00,-SN,,0.06,538.0,WeatherDisplay:10.37,2013-03-23 17:55:00,
2013-03-23 14:00:00,36.0,24.2,29.89,WNW,285,15.0,15.0,62,0.00,-SN,,0.06,432.0,WeatherDisplay:10.37,2013-03-23 18:00:00,
2013-03-23 14:05:00,36.3,24.1,29.89,NW,317,17.0,17.0,61,0.00,-SN,,0.06,489.0,WeatherDisplay:10.37,2013-03-23 18:05:00,
2013-03-23 14:10:00,36.5,23.9,29.89,WSW,244,13.0,13.0,60,0.00,-SN,,0.06,404.0,WeatherDisplay:10.37,2013-03-23 18:10:00,
2013-03-23 14:15:00,36.3,23.7,29.89,West,279,12.0,12.0,60,0.00,BKN,,0.06,606.0,WeatherDisplay:10.37,2013-03-23 18:15:00,
2013-03-23 14:20:00,36.9,23.9,29.89,NNW,328,14.0,14.0,59,0.00,BKN,,0.06,519.0,WeatherDisplay:10.37,2013-03-23 18:20:00,
2013-03-23 14:25:00,37.6,24.1,29.89,WNW,301,11.5,11.5,58,0.00,BKN,,0.06,367.0,WeatherDisplay:10.37,2013-03-23 18:25:00,
2013-03-23 14:30:00,37.3,23.0,29.89,West,266,5.0,21.0,56,0.00,BKN,,0.06,352.0,WeatherDisplay:10.37,2013-03-23 18:30:00,
2013-03-23 14:35:00,36.9,23.5,29.89,West,271,18.4,18.4,58,0.00,BKN,,0.06,536.0,WeatherDisplay:10.37,2013-03-23 18:35:00,
2013-03-23 14:40:00,37.2,24.2,29.89,WSW,258,21.0,21.0,59,0.00,BKN,,0.06,473.0,WeatherDisplay:10.37,2013-03-23 18:40:00,
2013-03-23 14:45:00,37.3,23.4,29.89,WNW,300,22.0,22.0,57,0.00,BKN,,0.06,519.0,WeatherDisplay:10.37,2013-03-23 18:45:00,
2013-03-23 14:50:00,37.9,24.0,29.89,WNW,289,15.0,15.0,57,0.00,BKN,,0.06,559.0,WeatherDisplay:10.37,2013-03-23 18:50:00,
2013-03-23 14:55:00,38.0,23.7,29.89,North,350,22.0,22.0,56,0.00,BKN,,0.06,367.0,WeatherDisplay:10.37,2013-03-23 18:55:00,
2013-03-23 15:00:00,37.9,23.6,29.89,West,267,20.0,20.0,56,0.00,BKN,,0.06,471.0,WeatherDisplay:10.37,2013-03-23 19:00:00,
2013-03-23 15:05:00,37.8,23.5,29.89,WSW,239,16.1,16.1,56,0.00,BKN,,0.06,492.0,WeatherDisplay:10.37,2013-03-23 19:05:00,
2013-03-23 15:10:00,37.8,23.5,29.89,SW,222,18.4,18.4,56,0.00,BKN,,0.06,309.0,WeatherDisplay:10.37,2013-03-23 19:10:00,
2013-03-23 15:15:00,37.8,23.5,29.89,WNW,303,18.0,18.0,56,0.00,BKN,,0.06,900.0,WeatherDisplay:10.37,2013-03-23 19:15:00,
2013-03-23 15:20:00,38.2,24.3,29.89,WSW,245,20.0,20.0,57,0.00,BKN,,0.06,960.0,WeatherDisplay:10.37,2013-03-23 19:20:00,
2013-03-23 15:25:00,38.3,24.0,29.89,SW,226,16.0,16.0,56,0.00,BKN,,0.06,881.0,WeatherDisplay:10.37,2013-03-23 19:25:00,
2013-03-23 15:30:00,38.3,24.0,29.89,West,278,19.0,19.0,56,0.00,BKN,,0.06,838.0,WeatherDisplay:10.37,2013-03-23 19:30:00,
2013-03-23 15:35:00,38.5,24.1,29.89,WNW,283,19.0,19.0,56,0.00,BKN,,0.06,745.0,WeatherDisplay:10.37,2013-03-23 19:35:00,
2013-03-23 15:40:00,38.2,23.9,29.89,NW,319,20.7,20.7,56,0.00,BKN,,0.06,756.0,WeatherDisplay:10.37,2013-03-23 19:40:00,
2013-03-23 15:45:00,38.2,23.9,29.89,WNW,283,19.0,19.0,56,0.00,BKN,,0.06,777.0,WeatherDisplay:10.37,2013-03-23 19:45:00,
2013-03-23 15:50:00,37.8,23.5,29.89,SW,236,21.0,21.0,56,0.00,BKN,,0.06,766.0,WeatherDisplay:10.37,2013-03-23 19:50:00,
2013-03-23 15:55:00,38.0,23.7,29.89,WNW,286,17.0,17.0,56,0.00,BKN,,0.06,686.0,WeatherDisplay:10.37,2013-03-23 19:55:00,
2013-03-23 16:00:00,37.8,22.6,29.89,SSW,205,18.4,18.4,54,0.00,BKN,,0.06,795.0,WeatherDisplay:10.37,2013-03-23 20:00:00,
2013-03-23 16:05:00,37.5,22.8,29.89,West,270,22.0,22.0,55,0.00,BKN,,0.06,786.0,WeatherDisplay:10.37,2013-03-23 20:05:00,
2013-03-23 16:10:00,36.8,22.1,29.89,WNW,291,21.0,21.0,55,0.00,BKN,,0.06,854.0,WeatherDisplay:10.37,2013-03-23 20:10:00,
2013-03-23 16:15:00,36.9,22.2,29.90,West,262,21.0,21.0,55,0.00,BKN,,0.06,788.0,WeatherDisplay:10.37,2013-03-23 20:15:00,
2013-03-23 16:20:00,37.3,22.6,29.90,SSW,210,20.0,20.0,55,0.00,BKN,,0.06,772.0,WeatherDisplay:10.37,2013-03-23 20:20:00,
2013-03-23 16:25:00,37.6,22.9,29.90,SSW,194,12.0,12.0,55,0.00,BKN,,0.06,397.0,WeatherDisplay:10.37,2013-03-23 20:25:00,
2013-03-23 16:30:00,37.3,22.2,29.89,West,268,16.1,16.1,54,0.00,BKN,,0.06,250.0,WeatherDisplay:10.37,2013-03-23 20:30:00,
2013-03-23 16:35:00,36.9,22.2,29.89,WSW,254,21.9,21.9,55,0.00,BKN,,0.06,253.0,WeatherDisplay:10.37,2013-03-23 20:35:00,
2013-03-23 16:40:00,36.3,22.9,29.89,WNW,290,19.6,19.6,58,0.00,BKN,,0.06,241.0,WeatherDisplay:10.37,2013-03-23 20:40:00,
2013-03-23 16:45:00,36.3,22.5,29.90,SSW,202,15.0,15.0,57,0.00,BKN,,0.06,244.0,WeatherDisplay:10.37,2013-03-23 20:45:00,
2013-03-23 16:50:00,36.3,22.5,29.90,WNW,295,15.0,15.0,57,0.00,BKN,,0.06,190.0,WeatherDisplay:10.37,2013-03-23 20:50:00,
2013-03-23 16:55:00,36.0,22.2,29.90,WSW,256,12.0,12.0,57,0.00,BKN,,0.06,174.0,WeatherDisplay:10.37,2013-03-23 20:55:00,
2013-03-23 17:00:00,35.8,22.5,29.90,WSW,241,26.5,26.5,58,0.00,BKN,,0.06,176.0,WeatherDisplay:10.37,2013-03-23 21:00:00,
2013-03-23 17:05:00,35.5,22.2,29.90,West,281,22.0,22.0,58,0.00,BKN,,0.06,153.0,WeatherDisplay:10.37,2013-03-23 21:05:00,
2013-03-23 17:10:00,35.2,21.9,29.91,West,272,20.0,20.0,58,0.00,BKN,,0.06,132.0,WeatherDisplay:10.37,2013-03-23 21:10:00,
2013-03-23 17:15:00,35.0,21.7,29.91,WSW,255,20.0,20.0,58,0.00,OVC,,0.06,123.0,WeatherDisplay:10.37,2013-03-23 21:15:00,
2013-03-23 17:21:00,34.9,21.6,29.91,West,267,22.0,22.0,58,0.00,OVC,,0.06,98.0,WeatherDisplay:10.37,2013-03-23 21:21:00,
2013-03-23 17:26:00,34.7,21.8,29.91,West,267,19.6,19.6,59,0.00,OVC,,0.06,95.0,WeatherDisplay:10.37,2013-03-23 21:26:00,
2013-03-23 17:31:00,34.6,21.7,29.91,WNW,284,17.3,17.3,59,0.00,OVC,,0.06,84.0,WeatherDisplay:10.37,2013-03-23 21:31:00,
2013-03-23 17:36:00,34.4,21.5,29.91,WNW,286,16.1,16.1,59,0.00,OVC,,0.06,69.0,WeatherDisplay:10.37,2013-03-23 21:36:00,
2013-03-23 17:41:00,34.3,21.8,29.91,West,273,14.0,14.0,60,0.00,OVC,,0.06,56.0,WeatherDisplay:10.37,2013-03-23 21:41:00,
2013-03-23 17:46:00,34.1,21.7,29.91,WSW,241,13.0,13.0,60,0.00,OVC,,0.06,63.0,WeatherDisplay:10.37,2013-03-23 21:46:00,
2013-03-23 17:51:00,34.1,21.7,29.91,WNW,298,22.0,22.0,60,0.00,OVC,,0.06,56.0,WeatherDisplay:10.37,2013-03-23 21:51:00,
2013-03-23 17:56:00,34.0,21.6,29.92,WNW,297,21.0,21.0,60,0.00,OVC,,0.06,39.0,WeatherDisplay:10.37,2013-03-23 21:56:00,
2013-03-23 18:01:00,33.8,21.4,29.92,WSW,248,20.0,20.0,60,0.00,OVC,,0.06,32.0,WeatherDisplay:10.37,2013-03-23 22:01:00,
2013-03-23 18:06:00,33.8,21.8,29.92,WNW,297,21.0,21.0,61,0.00,OVC,,0.06,42.0,WeatherDisplay:10.37,2013-03-23 22:06:00,
2013-03-23 18:12:00,33.7,21.7,29.93,West,266,18.0,18.0,61,0.00,OVC,,0.06,47.0,WeatherDisplay:10.37,2013-03-23 22:12:00,
2013-03-23 18:17:00,33.7,21.3,29.93,West,279,19.6,19.6,60,0.00,OVC,,0.06,40.0,WeatherDisplay:10.37,2013-03-23 22:17:00,
2013-03-23 18:22:00,33.5,21.1,29.93,NW,305,10.4,10.4,60,0.00,OVC,,0.06,56.0,WeatherDisplay:10.37,2013-03-23 22:22:00,
2013-03-23 18:27:00,33.7,21.7,29.93,WNW,294,16.0,16.0,61,0.00,OVC,,0.06,63.0,WeatherDisplay:10.37,2013-03-23 22:27:00,
2013-03-23 18:32:00,33.7,21.7,29.93,WNW,291,10.4,10.4,61,0.00,OVC,,0.06,63.0,WeatherDisplay:10.37,2013-03-23 22:32:00,
2013-03-23 18:37:00,33.7,21.7,29.93,NW,321,18.4,18.4,61,0.00,OVC,,0.06,51.0,WeatherDisplay:10.37,2013-03-23 22:37:00,
2013-03-23 18:42:00,33.5,21.5,29.93,West,276,19.6,19.6,61,0.00,OVC,,0.06,37.0,WeatherDisplay:10.37,2013-03-23 22:42:00,
2013-03-23 18:47:00,33.4,21.0,29.93,West,274,12.0,12.0,60,0.00,OVC,,0.06,32.0,WeatherDisplay:10.37,2013-03-23 22:47:00,
2013-03-23 18:52:00,33.2,21.2,29.93,WNW,302,15.0,15.0,61,0.00,OVC,,0.06,25.0,WeatherDisplay:10.37,2013-03-23 22:52:00,
2013-03-23 18:57:00,33.1,21.5,29.94,WNW,295,11.0,11.0,62,0.00,OVC,,0.06,19.0,WeatherDisplay:10.37,2013-03-23 22:57:00,
2013-03-23 19:02:00,33.1,21.9,29.94,WNW,286,14.0,14.0,63,0.00,OVC,,0.06,14.0,WeatherDisplay:10.37,2013-03-23 23:02:00,
2013-03-23 19:07:00,32.9,21.7,29.94,SW,223,11.5,11.5,63,0.00,OVC,,0.06,9.0,WeatherDisplay:10.37,2013-03-23 23:07:00,
2013-03-23 19:12:00,32.9,21.7,29.94,WSW,255,18.4,18.4,63,0.00,OVC,,0.06,5.0,WeatherDisplay:10.37,2013-03-23 23:12:00,
2013-03-23 19:17:00,32.8,21.6,29.94,WSW,245,10.4,10.4,63,0.00,OVC,,0.06,0.0,WeatherDisplay:10.37,2013-03-23 23:17:00,
2013-03-23 19:22:00,32.8,21.6,29.94,WSW,253,16.1,16.1,63,0.00,OVC,,0.06,0.0,WeatherDisplay:10.37,2013-03-23 23:22:00,
2013-03-23 19:27:00,32.8,22.0,29.94,NW,317,16.1,16.1,64,0.00,OVC,,0.06,0.0,WeatherDisplay:10.37,2013-03-23 23:27:00,
2013-03-23 19:32:00,32.7,21.9,29.94,NNW,327,11.5,11.5,64,0.00,OVC,,0.06,0.0,WeatherDisplay:10.37,2013-03-23 23:32:00,
2013-03-23 19:37:00,32.7,21.9,29.94,West,269,11.5,11.5,64,0.00,OVC,,0.06,0.0,WeatherDisplay:10.37,2013-03-23 23:37:00,
2013-03-23 19:42:00,32.7,21.9,29.94,WNW,286,13.0,13.0,64,0.00,OVC,,0.06,0.0,WeatherDisplay:10.37,2013-03-23 23:42:00,
2013-03-23 19:47:00,32.7,21.9,29.94,NW,306,12.0,12.0,64,0.00,OVC,,0.06,0.0,WeatherDisplay:10.37,2013-03-23 23:47:00,
2013-03-23 19:52:00,32.8,21.6,29.94,West,261,10.0,10.0,63,0.00,OVC,,0.06,0.0,WeatherDisplay:10.37,2013-03-23 23:52:00,
2013-03-23 19:57:00,32.7,21.9,29.94,WNW,290,11.5,11.5,64,0.00,OVC,,0.06,0.0,WeatherDisplay:10.37,2013-03-23 23:57:00,
2013-03-23 20:03:00,32.7,21.9,29.94,WNW,293,12.0,12.0,64,0.00,OVC,,0.06,0.0,WeatherDisplay:10.37,2013-03-24 00:03:00,
2013-03-23 20:08:00,32.7,21.9,29.94,WSW,240,13.8,13.8,64,0.00,OVC,,0.06,0.0,WeatherDisplay:10.37,2013-03-24 00:08:00,
2013-03-23 20:13:00,32.7,21.5,29.94,WSW,244,7.0,7.0,63,0.00,OVC,,0.06,0.0,WeatherDisplay:10.37,2013-03-24 00:13:00,
2013-03-23 20:18:00,32.7,21.9,29.94,West,266,5.0,5.0,64,0.00,OVC,,0.06,0.0,WeatherDisplay:10.37,2013-03-24 00:18:00,
2013-03-23 20:23:00,32.5,21.7,29.94,NW,320,11.0,11.0,64,0.00,OVC,,0.06,0.0,WeatherDisplay:10.37,2013-03-24 00:23:00,
2013-03-23 20:28:00,32.4,21.6,29.94,West,280,7.0,7.0,64,0.00,OVC,,0.06,0.0,WeatherDisplay:10.37,2013-03-24 00:28:00,
2013-03-23 20:33:00,32.4,21.6,29.94,WNW,290,12.0,12.0,64,0.00,OVC,,0.06,0.0,WeatherDisplay:10.37,2013-03-24 00:33:00,
2013-03-23 20:38:00,32.2,21.4,29.94,WSW,253,13.8,13.8,64,0.00,OVC,,0.06,0.0,WeatherDisplay:10.37,2013-03-24 00:38:00,
2013-03-23 20:43:00,32.1,21.3,29.94,NW,307,14.0,14.0,64,0.00,OVC,,0.06,0.0,WeatherDisplay:10.37,2013-03-24 00:43:00,
2013-03-23 20:48:00,31.9,21.1,29.94,WSW,253,4.0,4.0,64,0.00,OVC,,0.06,0.0,WeatherDisplay:10.37,2013-03-24 00:48:00,
2013-03-23 20:53:00,31.8,21.0,29.94,West,272,5.8,5.8,64,0.00,OVC,,0.06,0.0,WeatherDisplay:10.37,2013-03-24 00:53:00,
2013-03-23 20:58:00,31.8,21.4,29.95,West,268,6.9,6.9,65,0.00,OVC,,0.06,0.0,WeatherDisplay:10.37,2013-03-24 00:58:00,
2013-03-23 21:03:00,31.6,21.2,29.95,WSW,245,10.0,10.0,65,0.00,OVC,,0.06,0.0,WeatherDisplay:10.37,2013-03-24 01:03:00,
2013-03-23 21:08:00,31.5,21.1,29.95,WNW,285,11.5,11.5,65,0.00,OVC,,0.06,0.0,WeatherDisplay:10.37,2013-03-24 01:08:00,
2013-03-23 21:13:00,31.3,21.3,29.95,WNW,284,6.0,6.0,66,0.00,OVC,,0.06,0.0,WeatherDisplay:10.37,2013-03-24 01:13:00,
2013-03-23 21:18:00,31.2,21.2,29.95,West,277,6.0,6.0,66,0.00,OVC,,0.06,0.0,WeatherDisplay:10.37,2013-03-24 01:18:00,
2013-03-23 21:23:00,31.2,21.2,29.95,West,269,3.5,3.5,66,0.00,OVC,,0.06,0.0,WeatherDisplay:10.37,2013-03-24 01:23:00,
2013-03-23 21:28:00,31.0,21.3,29.95,WSW,253,5.8,5.8,67,0.00,OVC,,0.06,0.0,WeatherDisplay:10.37,2013-03-24 01:28:00,
2013-03-23 21:33:00,30.9,21.2,29.95,SW,236,7.0,7.0,67,0.00,OVC,,0.06,0.0,WeatherDisplay:10.37,2013-03-24 01:33:00,
2013-03-23 21:38:00,30.9,21.2,29.95,West,270,13.0,13.0,67,0.00,OVC,,0.06,0.0,WeatherDisplay:10.37,2013-03-24 01:38:00,
2013-03-23 21:43:00,30.9,21.6,29.95,West,265,7.0,7.0,68,0.00,OVC,,0.06,0.0,WeatherDisplay:10.37,2013-03-24 01:43:00,
2013-03-23 21:48:00,30.9,21.6,29.95,West,272,7.0,7.0,68,0.00,OVC,,0.06,0.0,WeatherDisplay:10.37,2013-03-24 01:48:00,
2013-03-23 21:53:00,30.9,21.6,29.95,SSW,201,5.0,5.0,68,0.00,OVC,,0.06,0.0,WeatherDisplay:10.37,2013-03-24 01:53:00,
2013-03-23 21:58:00,31.0,21.7,29.96,WSW,250,4.6,4.6,68,0.00,OVC,,0.06,0.0,WeatherDisplay:10.37,2013-03-24 01:58:00,
2013-03-23 22:03:00,31.0,21.7,29.96,WNW,287,7.0,7.0,68,0.00,OVC,,0.06,0.0,WeatherDisplay:10.37,2013-03-24 02:03:00,
2013-03-23 22:08:00,31.2,21.9,29.96,WSW,253,12.0,12.0,68,0.00,OVC,,0.06,0.0,WeatherDisplay:10.37,2013-03-24 02:08:00,
2013-03-23 22:13:00,31.3,22.0,29.95,West,265,11.0,11.0,68,0.00,SCT,,0.06,0.0,WeatherDisplay:10.37,2013-03-24 02:13:00,
2013-03-23 22:18:00,31.3,22.0,29.95,West,272,6.0,6.0,68,0.00,SCT,,0.06,0.0,WeatherDisplay:10.37,2013-03-24 02:18:00,
2013-03-23 22:23:00,31.5,22.1,29.95,West,281,5.8,5.8,68,0.00,SCT,,0.06,0.0,WeatherDisplay:10.37,2013-03-24 02:23:00,
2013-03-23 22:28:00,31.5,22.1,29.95,West,263,10.4,10.4,68,0.00,SCT,,0.06,0.0,WeatherDisplay:10.37,2013-03-24 02:28:00,
2013-03-23 22:33:00,31.5,22.1,29.95,WNW,301,10.4,10.4,68,0.00,SCT,,0.06,0.0,WeatherDisplay:10.37,2013-03-24 02:33:00,
2013-03-23 22:38:00,31.6,21.9,29.95,West,271,5.0,5.0,67,0.00,SCT,,0.06,0.0,WeatherDisplay:10.37,2013-03-24 02:38:00,
2013-03-23 22:43:00,31.8,22.1,29.95,WNW,290,9.0,9.0,67,0.00,SCT,,0.06,0.0,WeatherDisplay:10.37,2013-03-24 02:43:00,
2013-03-23 22:48:00,31.9,22.2,29.95,WNW,284,11.5,11.5,67,0.00,SCT,,0.06,0.0,WeatherDisplay:10.37,2013-03-24 02:48:00,
2013-03-23 22:53:00,31.9,22.2,29.95,West,273,7.0,7.0,67,0.00,SCT,,0.06,0.0,WeatherDisplay:10.37,2013-03-24 02:53:00,
2013-03-23 22:58:00,32.1,22.4,29.95,WNW,283,10.4,10.4,67,0.00,SCT,,0.06,0.0,WeatherDisplay:10.37,2013-03-24 02:58:00,
2013-03-23 23:03:00,32.1,22.4,29.95,WNW,290,6.0,6.0,67,0.00,OVC,,0.06,0.0,WeatherDisplay:10.37,2013-03-24 03:03:00,
2013-03-23 23:08:00,32.1,22.4,29.95,WNW,286,6.9,6.9,67,0.00,OVC,,0.06,0.0,WeatherDisplay:10.37,2013-03-24 03:08:00,
2013-03-23 23:13:00,32.1,22.4,29.94,WSW,238,6.0,6.0,67,0.00,OVC,,0.06,0.0,WeatherDisplay:10.37,2013-03-24 03:13:00,
2013-03-23 23:18:00,32.1,22.4,29.94,West,263,6.9,6.9,67,0.00,OVC,,0.06,0.0,WeatherDisplay:10.37,2013-03-24 03:18:00,
2013-03-23 23:24:00,32.1,22.4,29.94,West,272,6.9,6.9,67,0.00,OVC,,0.06,0.0,WeatherDisplay:10.37,2013-03-24 03:24:00,
2013-03-23 23:29:00,32.1,22.7,29.94,West,279,7.0,7.0,68,0.00,OVC,,0.06,0.0,WeatherDisplay:10.37,2013-03-24 03:29:00,
2013-03-23 23:34:00,31.9,22.2,29.94,West,277,6.0,6.0,67,0.00,OVC,,0.06,0.0,WeatherDisplay:10.37,2013-03-24 03:34:00,
2013-03-23 23:39:00,31.9,22.5,29.94,West,278,4.0,4.0,68,0.00,OVC,,0.06,0.0,WeatherDisplay:10.37,2013-03-24 03:39:00,
2013-03-23 23:44:00,31.9,22.5,29.94,WSW,258,7.0,7.0,68,0.00,OVC,,0.06,0.0,WeatherDisplay:10.37,2013-03-24 03:44:00,
2013-03-23 23:49:00,31.9,22.5,29.94,SW,234,5.0,5.0,68,0.00,OVC,,0.06,0.0,WeatherDisplay:10.37,2013-03-24 03:49:00,
2013-03-23 23:54:00,31.9,22.5,29.94,West,262,6.0,6.0,68,0.00,OVC,,0.06,0.0,WeatherDisplay:10.37,2013-03-24 03:54:00,
2013-03-23 23:59:00,31.9,22.5,29.93,WSW,245,5.0,5.0,68,0.00,OVC,,0.06,0.0,WeatherDisplay:10.37,2013-03-24 03:59:00,